sat.trackr.live / text

‹ back to catalog

SES-20

NORAD 53960 · 2022-123A

PAYLOAD ACTIVE UNKNOWN

§ Identity

Operator
Country
SES
Launch date
2022-10-04
Launch site
AFETR
Launch vehicle
Mass (kg)
RCS (m²)

Purposes: comms

External: N2YO · Heavens-Above · Gunter

§ Orbital elements

Epoch: 2026-05-24T11:51:13.233024Z

Period
1,436.13 min
Inclination
0.0468°
Eccentricity
0.0001904
Mean motion
1.00269485 rev/d
Perigee alt
35,779.2 km
Apogee alt
35,795.3 km
Semi-major
42,165.4 km
B*
0.0000e+0
RAAN
94.6663°
Arg perigee
348.6628°
Mean anomaly
233.4603°
Rev number
1,329

§ Raw data

SES-201 53960U 22123A   26144.49390316 -.00000105  00000+0  00000+0 0  99902 53960   0.0468  94.6663 0001904 348.6628 233.4603  1.00269485 13299

JSON: /api/v1/satellites/53960 · /tle

For live sub-satellite position, see the globe view (requires WebGL).

§ Visibility from observer

Set your observer location to see the next 7 days of passes ≥ 10°. The values pass through the URL so the page stays shareable.

No JS? Fill the form by hand. The geolocation button needs JavaScript.